Weather in Ozersk

Russia / Chelyabinsk Oblast     55°45′47″N   60°42′27″E
temp.,
°C
wind,
m/s
gust,
m/s
humid.,
%
clouds,
%
prec.,
mm/h
press.,
hPa
HPBL,
m
20 june, sun
sun2023:00+14wsw31396100 2.6 1012490
02:00+16w61494100 0.8 1009515
05:00+16wnw7159479 1.5 1009609
08:00+19nw613835 0.0 10101275
11:00+22nw715395 0.0 10101972
14:00+23nnw714260 0.0 10112581
17:00+22nnw715300 0.0 10122462
20:00+17nnw6143945 0.0 10142032
21 june, mon
mon2123:00+13nnw61241100 0.0 10171055
02:00+11nnw512505 0.0 1019631
05:00+9nnw412560 0.0 1021543
08:00+13nnw6104619 0.0 1022998
11:00+17n583415 0.0 10221602
14:00+20n462798 0.0 10221949
17:00+21n352638 0.0 10212038
20:00+18sse225598 0.0 102046
22 june, tue
tue2223:00+15w2261100 0.0 102043
02:00+15w1267100 0.0 101942
05:00+14w267682 0.0 1019217
08:00+17wnw367496 0.0 1018433
11:00+24wnw475562 0.1 10171302
14:00+25nnw496764 1.6 10161651
17:00+24n367234 3.2 10161119
20:00+22e128282 0.4 101671
23 june, wed
wed2323:00+19ssw119133 0.5 101615
02:00+16wnw22966 0.8 101521
05:00+15nne379898 1.6 1017278
08:00+13e3797100 0.4 1019464
11:00+13se3598100 6.1 1019379
14:00+12se3698100 2.5 1019338
17:00+12ese2598100 3.4 1019321
20:00+13sse2291100 0.1 1020428
24 june, thu
thu2423:00+11s119822 0.1 102011
02:00+10sse119954 0.0 102022
05:00+11sse1397100 0.0 1019103
08:00+13sse2392100 0.0 1019300
11:00+16s228391 0.0 1018540
14:00+23sse125876 0.0 10161309
17:00+21ese2372100 0.1 1015263
20:00+19sse258115 0.0 1014221